Location: Casalecchio di Reno
(44.4760°N, 11.2757°E)
Time: 14:10:36
(UTC+02:00)

UWE-3 - Pass Details

Date: 26 June 2024
Orbit: 566 x 652 km, 97.8° (Epoch: 11 July)

Event Time Altitude Azimuth Distance (km) Brightness Sun altitude
Rises 04:12:33 0° 8° (N) 2,862 ? -11.3°
Reaches altitude 10° 04:14:47 10° 3° (N) 1,940 ? -11.1°
Maximum altitude 04:18:52 52° 288° (WNW) 735 ? -10.6°
Enters shadow 04:22:14 14° 214° (SW) 1,650 ? -10.2°
